Reflectivity
11 20 -13 -20 -18 4 -20 -20 -2 -5 -20 -20 -20 -20 -20 -20 -20 -20 -20 13 -17 4 -4 9 10 10 3 2 0 -20 -20 -20 -20 -20 -20 -20 -4 1
17 20 20 -17 -20 -16 -20 -20 -20 -20 -20 -20 -20 -20 -20 -20 -17 -20 -14 13 -14 -19 -9 -3 5 16 7 -20 -20 -20 -20 -20 -20 -20 -20 -20 -20 7
24 23 12 10 -20 -20 -20 -20 -20 -20 -20 -20 -20 -20 -20 -20 -20 -20 -2 4 -17 -12 -14 -16 9 12 9 8 -4 -20 -19 -20 -20 -20 18 19 -0 22
19 33 27 2 -20 -20 -20 -20 -20 -20 -20 -20 -20 -20 -20 -20 -20 -20 -20 -20 2 11 -20 -16 9 8 12 2 -12 -15 -20 -20 -12 -20 12 35 29 26
24 30 19 -14 -20 -20 -20 -20 -20 -20 -20 -20 -20 -20 -20 -20 -20 -20 -20 -20 -20 -13 -20 -20 -7 -9 -17 -20 -5 -2 -12 -11 -20 -4 -2 21 29 37
27 30 21 1 -20 -20 -20 -20 -20 -20 -20 -20 -20 -20 -20 -20 -20 -20 -20 -20 -20 -20 -7 7 14 9 -6 -2 -11 -14 -20 -10 -20 -18 -12 -17 11 16
23 -4 -16 -13 -5 -18 -20 -20 -20 -20 -20 -20 -20 -20 -20 -20 -20 -20 -20 -20 -20 -20 -3 -20 -7 -11 8 -8 14 8 -5 -4 -14 -20 13 3 -16 24
6 -6 -13 -15 -20 -20 -20 -20 -20 -20 -20 -20 -20 -20 -20 -20 -20 -20 -20 -20 -20 -20 -15 -4 -6 -5 10 18 20 10 -7 -20 -20 -20 11 14 -2 -19
-2 -14 -20 -20 -20 -20 -20 -20 -20 -20 -20 -20 -20 -20 -20 -20 -20 -20 -20 -20 -20 -20 -20 -3 -18 13 11 -2 3 -17 -1 -3 -20 -16 -20 5 18 16
-20 -20 -20 -20 -20 -20 -20 -20 -20 -20 -20 -20 -20 -20 -20 -20 -20 -20 -20 -20 -20 -20 -20 -18 -19 -6 -3 -10 11 9 5 7 4 -7 -7 -9 10 17
-20 -20 -15 -20 -20 -20 -20 -20 -20 -20 -20 -20 -20 -20 -20 -20 -1 -19 -20 -20 -20 -20 -20 -12 -16 -11 -13 -19 -12 12 7 7 4 -20 -6 2 6 8
-20 -20 -20 -20 -20 -20 -20 -20 -20 -20 -20 -20 -20 -20 -20 -20 -20 -20 -20 -20 -20 -20 -20 -15 -12 -7 -9 -20 -20 1 4 13 -7 -8 -20 -20 -20 -20
-20 -20 -20 -20 -20 -20 -20 -20 -20 -20 -20 -20 -20 -20 -20 -20 -20 -20 -20 -20 -20 -20 -5 -12 -18 -16 -15 -17 -20 -9 -19 -20 -20 -20 -20 -11 -0 -11
-20 -20 -20 -20 -20 -20 -20 -20 -20 -20 -20 -20 -20 -20 -20 -20 -20 -20 -20 -20 -20 -20 -20 -20 -17 -20 -20 -20 -20 -20 -20 -20 -20 -20 -20 -20 -20 7
-20 -20 -20 -20 -20 -20 -20 -20 -20 -20 -20 -20 -20 -20 -20 -20 -20 -20 -20 -20 -20 -20 -20 -20 -20 -20 -20 -20 -20 -20 -20 -20 -20 -20 -20 -20 -20 -20
-11 -16 -20 -20 -20 -20 -20 -20 -20 -20 -20 -20 -20 -20 -20 -20 -20 -20 -20 -20 -20 -20 -20 -20 -20 -20 -20 -20 -20 -20 -20 -20 -20 -20 -20 -20 -20 -20
4 -5 -14 -20 -20 -20 -20 -20 -20 -20 -20 -20 -20 -20 -20 -20 -20 -20 -20 -20 -20 -20 -20 -20 -20 -20 -20 -20 -20 -20 -20 -20 -20 -20 -20 -20 -20 -20
32 21 -8 -15 -18 -5 1 -11 -20 -20 -20 -20 -20 -20 -20 -20 -20 -20 -20 -20 -20 -20 -20 -20 -20 -20 -20 -20 -20 -20 -20 -20 -20 -20 -20 -20 -20 -20
37 35 32 32 31 38 37 26 -20 -20 -20 -20 -20 -20 -20 -20 -20 -20 -20 -20 -20 -20 -20 -20 -20 -20 -20 -20 -20 -20 -20 -20 -20 -20 -20 -20 -20 -20
33 29 31 32 38 37 33 25 -14 -20 -20 -20 -20 -19 -20 -20 -20 -20 -20 -20 -20 -20 -20 -20 -20 -20 -20 -20 -20 -20 -20 -20 -20 -20 -20 -20 -20 -20
31 34 32 33 35 38 33 28 -18 -20 -20 -20 -20 -20 -20 -20 -20 -20 -20 -20 -20 -20 -20 -20 -20 -20 -20 -20 -20 -20 -20 -20 -20 -20 -20 -20 -20 -20
18 25 27 33 32 34 35 31 17 -2 -20 -20 -20 -20 -20 -20 -20 -20 -20 -20 -20 -20 -20 -20 -20 -20 -20 -20 -20 -20 -20 -20 -20 -20 -20 -20 -20 -20
23 26 33 34 34 35 33 31 25 13 -6 -17 -18 -20 -20 -20 -20 -20 -20 -20 -20 -20 -20 -20 -20 -20 -20 -20 -20 -20 -20 -20 -20 -20 -20 -20 -20 -20
Wind_Speed
5 5 4 4 4 3 3 4 3 2 2 1 2 3 2 3 3 3 3 3 3 4 6 7 6 5 3 3 7 10 13 14 19 23 16 15 18 24
4 7 5 4 4 3 3 3 3 4 3 2 1 2 1 3 2 3 4 4 4 1 2 1 2 1 1 2 5 9 12 15 18 25 18 16 21 19
5 7 6 5 4 4 3 2 3 3 4 1 2 2 2 2 2 1 2 3 4 6 2 2 3 2 1 3 6 8 8 11 15 25 5 17 20 20
7 6 5 4 5 5 4 3 3 2 3 2 1 1 3 4 3 3 3 2 2 4 4 3 5 4 1 3 6 7 9 9 11 16 20 19 21 20
8 8 7 6 5 3 3 4 4 3 3 2 1 2 1 1 0 1 2 4 3 5 6 6 6 4 3 3 4 5 7 7 6 8 14 14 14 14
6 8 7 7 7 6 5 5 5 4 2 2 2 1 1 1 1 1 2 1 3 2 3 5 8 6 4 2 2 3 4 7 7 8 11 13 11 10
7 8 6 7 8 6 4 4 5 4 2 3 2 1 1 1 2 1 1 2 3 2 2 1 2 2 2 2 1 3 3 4 6 8 7 9 9 9
9 7 6 9 8 9 9 8 6 5 5 4 3 4 3 2 0 0 1 2 3 2 1 2 2 2 2 2 2 1 2 1 3 6 5 6 5 4
9 8 6 4 7 7 9 8 6 6 4 5 5 4 3 2 3 2 3 2 3 1 2 2 1 3 3 3 6 5 4 3 4 5 7 4 3 5
9 8 8 7 6 7 6 5 5 4 5 4 4 3 2 2 3 3 3 3 2 3 3 3 2 3 2 3 8 8 7 7 6 5 6 8 7 6
6 6 7 7 10 11 6 6 4 2 5 6 6 4 2 3 5 2 1 1 2 2 3 2 2 2 2 3 4 9 9 9 7 6 7 7 5 5
4 4 8 7 12 11 6 5 4 3 4 2 2 1 1 2 1 1 2 2 2 1 3 3 3 2 3 2 1 2 3 8 8 7 9 9 8 2
5 4 3 10 12 10 8 5 5 5 5 3 2 2 1 2 2 2 3 3 2 2 2 1 1 1 1 1 1 0 3 2 2 1 8 10 11 8
4 3 5 11 10 9 6 7 6 6 3 3 2 2 2 2 3 2 3 2 3 3 3 3 2 2 1 1 2 2 2 2 2 2 2 5 12 13
4 6 9 10 10 7 8 8 8 4 3 2 3 2 2 3 2 1 1 2 1 1 1 1 1 1 2 2 1 2 1 2 1 2 2 2 3 2
6 5 8 8 9 7 5 5 3 4 4 3 3 2 3 2 2 3 2 2 1 3 1 1 2 2 2 3 2 2 3 2 1 1 2 1 0 1
5 3 3 3 4 4 3 4 3 4 5 3 3 3 3 3 2 2 2 2 2 2 2 1 0 3 4 3 3 4 3 2 2 2 2 1 2 3
5 4 5 6 7 6 6 5 5 8 5 5 4 4 4 4 4 2 3 1 5 4 2 2 1 3 3 5 14 4 3 3 2 3 1 2 3 3
4 6 6 6 6 5 6 7 6 7 6 5 5 5 4 4 5 4 3 4 5 4 3 3 2 3 1 3 4 15 3 2 3 2 3 3 3 2
4 5 5 5 5 6 6 6 5 4 5 6 5 4 4 4 3 2 4 4 6 2 3 1 2 4 5 5 3 3 9 3 3 4 3 2 3 9
5 5 5 5 6 7 7 6 5 4 5 5 5 5 5 5 5 3 4 8 6 3 6 5 7 12 2 1 3 3 3 11 6 4 3 3 2 2
6 7 7 6 7 8 7 5 5 5 4 4 5 5 5 5 5 5 4 4 5 4 5 3 1 2 4 6 7 3 2 2 7 11 10 8 4 4
3 4 3 5 5 5 4 4 5 5 5 5 5 5 5 5 5 5 5 5 5 4 4 3 2 2 4 6 10 4 3 2 2 1 5 15 17 15
Wind_Direction
174 151 160 128 109 105 107 118 151 169 253 11 115 50 80 50 27 10 343 354 331 30 51 71 67 56 59 2 329 326 326 328 331 325 293 234 196 185
154 159 127 99 93 112 137 138 135 160 202 171 67 151 206 132 64 23 351 326 333 352 47 94 72 224 306 294 323 330 336 338 345 350 308 193 171 168
154 134 113 124 138 121 122 123 146 152 170 216 146 210 186 63 36 22 12 351 336 338 298 291 262 238 186 25 11 356 349 357 1 19 298 153 148 143
144 100 127 131 143 150 145 148 147 118 120 156 199 74 65 42 1 351 342 314 252 334 298 268 253 236 113 37 31 24 16 5 16 52 60 67 91 111
143 144 152 152 141 135 142 154 153 132 126 117 289 48 64 98 306 282 310 301 318 303 304 270 248 203 169 102 57 28 22 27 33 95 100 96 102 116
147 131 146 159 159 163 160 171 150 133 131 123 203 244 294 333 341 280 319 282 282 301 314 323 267 192 180 170 108 55 32 35 69 100 108 113 119 129
128 118 133 123 135 150 153 151 138 128 134 179 170 139 242 274 248 64 286 285 277 255 288 286 305 310 293 154 138 78 65 44 79 97 105 127 131 139
131 117 121 127 135 132 118 128 147 161 173 174 182 198 213 212 178 210 243 288 297 83 268 279 192 238 262 261 231 249 209 161 140 109 98 93 56 93
135 135 138 157 155 146 142 147 150 156 156 168 187 189 201 179 136 181 217 234 249 235 164 266 203 246 237 243 217 236 247 233 197 160 143 136 169 151
147 157 160 161 163 157 149 156 174 178 175 161 176 178 188 244 213 199 221 257 289 264 186 232 173 253 243 237 220 228 237 238 227 206 191 186 192 174
142 156 158 152 168 160 144 159 172 174 164 153 150 162 235 272 271 178 223 188 274 266 210 156 224 244 253 230 205 232 238 233 228 216 216 190 173 176
142 146 161 159 168 165 149 157 161 202 160 122 46 103 149 267 309 215 182 196 194 297 240 184 171 188 236 223 328 257 254 253 213 215 221 196 192 131
161 158 168 167 167 166 161 158 183 162 180 158 197 222 248 236 238 216 207 182 171 266 244 184 343 252 243 306 311 255 253 249 123 220 225 214 204 169
177 169 183 174 170 172 175 178 191 163 138 163 191 232 251 251 240 220 238 233 208 185 277 202 193 204 209 322 262 352 295 264 139 175 201 253 234 202
168 180 178 167 175 181 189 200 205 160 175 174 191 217 192 217 143 129 341 322 1 335 222 262 192 159 204 229 216 231 211 285 186 163 166 199 207 183
176 171 181 182 175 177 194 214 176 175 192 182 218 204 139 166 199 169 164 227 282 300 305 327 256 208 215 233 162 238 217 188 1 213 174 186 10 203
171 181 188 180 183 176 172 190 193 207 201 184 176 194 206 155 210 161 157 175 195 286 295 320 270 214 239 194 224 219 204 203 195 180 132 220 234 209
198 189 211 200 202 194 192 200 201 207 203 197 204 177 204 185 182 180 174 195 249 256 267 252 128 23 351 264 215 221 206 173 175 165 144 161 258 240
219 225 218 208 211 215 211 206 208 197 183 198 190 199 185 191 199 187 193 228 250 253 243 237 165 134 117 247 284 209 189 172 142 166 187 182 199 234
241 223 212 210 218 216 218 213 207 179 182 188 191 191 197 182 185 170 174 213 247 236 266 256 203 177 169 212 247 274 211 164 170 173 179 216 246 268
224 233 222 212 214 219 215 210 197 186 189 182 193 194 191 187 216 202 201 211 223 202 246 243 236 222 181 82 295 290 279 216 181 166 163 166 182 231
231 226 226 226 221 221 213 201 188 191 187 192 202 194 189 189 208 215 203 204 229 232 230 241 238 148 192 229 249 238 295 307 228 216 198 188 169 209
271 269 268 248 237 221 198 195 203 197 195 196 195 195 189 193 197 207 207 210 229 219 213 243 221 194 210 219 243 251 236 240 193 183 237 237 241 248